Weather History for Great Bend, KS

Change the Weather History Date:

Saturday, March 16, 2013

  Actual Average Record
Temperature  
Mean Temperature 42 °F -  
Max Temperature 53 °F 57 °F 80 °F (2012)
Min Temperature 32 °F 32 °F 15 °F (2002)
Degree Days  
Heating Degree Days 22    
Moisture  
Dew Point 29 °F    
Average Humidity 62    
Maximum Humidity 76    
Minimum Humidity 50    
Precipitation  
Precipitation 0.00 in - - ()
Sea Level Pressure  
Sea Level Pressure 29.94 in    
Wind  
Wind Speed 18 mph (NE)    
Max Wind Speed 29 mph    
Max Gust Speed 34 mph    
Visibility 10 miles    
Events      
Averages and records for this station are not official NWS values.
T = Trace of Precipitation, MM = Missing Value Source: NWS Daily Summary

Daily Weather History Graph

Daily Weather History Graph

Search for Another Location

Airport:

Trip Planner

Search our weather history database for the weather conditions in past years. The results will help you decide how hot, cold, wet, or windy it might be!

Date:

Astronomy

Mar. 16, 2013 Rise Set
Actual Time 7:44 AM CDT 7:43 PM CDT
Civil Twilight 7:18 AM CDT 8:10 PM CDT
Nautical Twilight 6:47 AM CDT 8:40 PM CDT
Astronomical Twilight 6:16 AM CDT 9:12 PM CDT
Moon 10:19 AM CDT (3/16) No Moon Set
Length of Visible Light 12h 51m
Length of Day
11h 59m
Waxing Crescent, 23% of the Moon is Illuminated
Mar 16
Waxing Crescent
Mar 19
First Quarter
Mar 27
Full
Apr 2
Last Quarter
Apr 10
New

Hourly Weather History & Observations

Time (CDT) Temp. Windchill Dew Point Humidity Pressure Visibility Wind Dir Wind Speed Gust Speed Precip Events Conditions
12:55 AM 48.2 °F - 33.8 °F 58% 29.75 in 10.0 mi North 15.0 mph - N/A   Clear
1:15 AM 53.6 °F - 35.6 °F 51% 29.76 in 10.0 mi NNE 20.7 mph - N/A   Clear
1:35 AM 51.8 °F - 39.2 °F 62% 29.76 in 10.0 mi NE 18.4 mph - N/A   Clear
1:55 AM 51.8 °F - 39.2 °F 62% 29.77 in 10.0 mi NE 16.1 mph 21.9 mph N/A   Clear
2:15 AM 50.0 °F - 39.2 °F 66% 29.79 in 10.0 mi ENE 11.5 mph - N/A   Clear
2:35 AM 50.0 °F - 39.2 °F 66% 29.80 in 10.0 mi ENE 12.7 mph - N/A   Clear
2:55 AM 50.0 °F - 39.2 °F 66% 29.81 in 10.0 mi NE 12.7 mph - N/A   Clear
3:15 AM 48.2 °F - 39.2 °F 71% 29.81 in 10.0 mi NNE 12.7 mph - N/A   Clear
3:35 AM 48.2 °F - 39.2 °F 71% 29.83 in 10.0 mi NNE 16.1 mph - N/A   Clear
3:55 AM 48.2 °F - 39.2 °F 71% 29.82 in 10.0 mi NNE 18.4 mph - N/A   Clear
4:15 AM 46.4 °F 39.8 °F 39.2 °F 76% 29.82 in 10.0 mi NNE 16.1 mph - N/A   Clear
4:35 AM 46.4 °F 39.8 °F 39.2 °F 76% 29.82 in 10.0 mi NE 16.1 mph - N/A   Clear
5:15 AM 46.4 °F 40.7 °F 37.4 °F 71% 29.84 in 10.0 mi NNE 12.7 mph 20.7 mph N/A   Clear
5:35 AM 46.4 °F 39.8 °F 37.4 °F 71% 29.86 in 10.0 mi NNE 16.1 mph - N/A   Clear
5:55 AM 44.6 °F 36.4 °F 35.6 °F 71% 29.87 in 10.0 mi NNE 20.7 mph 26.5 mph N/A   Clear
6:15 AM 44.6 °F 35.9 °F 33.8 °F 66% 29.89 in 10.0 mi NNE 23.0 mph 26.5 mph N/A   Clear
6:35 AM 42.8 °F 32.9 °F 33.8 °F 70% 29.90 in 10.0 mi NNE 26.5 mph 31.1 mph N/A   Clear
6:55 AM 41.0 °F 31.4 °F 30.2 °F 65% 29.92 in 10.0 mi NNE 21.9 mph 34.5 mph N/A   Clear
7:15 AM 39.2 °F 29.3 °F 30.2 °F 70% 29.92 in 10.0 mi NNE 20.7 mph 29.9 mph N/A   Clear
7:35 AM 39.2 °F 29.0 °F 30.2 °F 70% 29.93 in 10.0 mi NNE 21.9 mph 27.6 mph N/A   Clear
7:55 AM 39.2 °F 28.7 °F 30.2 °F 70% 29.95 in 10.0 mi NNE 23.0 mph 34.5 mph N/A   Clear
8:15 AM 37.4 °F 27.8 °F 30.2 °F 75% 29.96 in 10.0 mi NNE 17.3 mph 24.2 mph N/A   Clear
8:35 AM 37.4 °F 27.8 °F 30.2 °F 75% 29.97 in 10.0 mi NNE 17.3 mph 23.0 mph N/A   Clear
8:55 AM 37.4 °F 28.2 °F 30.2 °F 75% 29.97 in 10.0 mi NE 16.1 mph 25.3 mph N/A   Clear
9:15 AM 37.4 °F 28.2 °F 30.2 °F 75% 29.98 in 10.0 mi NE 16.1 mph - N/A   Clear
9:35 AM 37.4 °F 25.2 °F 28.4 °F 70% 29.99 in 10.0 mi NNE 28.8 mph 34.5 mph N/A   Clear
9:55 AM 39.2 °F 29.3 °F 28.4 °F 65% 30.00 in 10.0 mi NNE 20.7 mph 32.2 mph N/A   Clear
10:15 AM 39.2 °F 28.5 °F 26.6 °F 61% 30.00 in 10.0 mi NE 24.2 mph 29.9 mph N/A   Clear
10:35 AM 39.2 °F 28.5 °F 26.6 °F 61% 30.00 in 10.0 mi NNE 24.2 mph 29.9 mph N/A   Clear
10:55 AM 39.2 °F 28.7 °F 26.6 °F 61% 30.01 in 10.0 mi NE 23.0 mph 29.9 mph N/A   Clear
11:15 AM 39.2 °F 29.6 °F 26.6 °F 61% 30.01 in 10.0 mi NE 19.6 mph 27.6 mph N/A   Clear
11:35 AM 39.2 °F 29.8 °F 26.6 °F 61% 30.01 in 10.0 mi NNE 18.4 mph - N/A   Clear
11:55 AM 41.0 °F 32.2 °F 26.6 °F 57% 30.02 in 10.0 mi NE 18.4 mph - N/A   Clear
12:15 PM 41.0 °F 31.9 °F 28.4 °F 61% 30.02 in 10.0 mi NE 19.6 mph - N/A   Clear
12:35 PM 42.8 °F 35.1 °F 28.4 °F 57% 30.02 in 10.0 mi NE 16.1 mph - N/A   Clear
12:55 PM 42.8 °F 34.8 °F 28.4 °F 57% 30.01 in 10.0 mi NNE 17.3 mph - N/A   Clear
1:15 PM 44.6 °F 36.9 °F 28.4 °F 53% 30.01 in 10.0 mi NE 18.4 mph 23.0 mph N/A   Clear
1:35 PM 44.6 °F 36.9 °F 30.2 °F 57% 30.01 in 10.0 mi NNE 18.4 mph - N/A   Clear
1:55 PM 44.6 °F 36.6 °F 28.4 °F 53% 30.00 in 10.0 mi NE 19.6 mph 26.5 mph N/A   Clear
2:15 PM 44.6 °F 37.4 °F 28.4 °F 53% 30.00 in 10.0 mi North 16.1 mph - N/A   Clear
2:35 PM 44.6 °F 37.2 °F 28.4 °F 53% 29.99 in 10.0 mi NE 17.3 mph 26.5 mph N/A   Clear
2:55 PM 44.6 °F 37.2 °F 28.4 °F 53% 29.98 in 10.0 mi NNE 17.3 mph - N/A   Clear
3:15 PM 44.6 °F 37.2 °F 28.4 °F 53% 29.97 in 10.0 mi NE 17.3 mph 24.2 mph N/A   Clear
3:35 PM 44.6 °F 36.4 °F 28.4 °F 53% 29.96 in 10.0 mi NNE 20.7 mph 24.2 mph N/A   Clear
3:55 PM 46.4 °F 39.2 °F 28.4 °F 50% 29.96 in 10.0 mi NNE 18.4 mph 23.0 mph N/A   Clear
4:15 PM 46.4 °F 40.1 °F 30.2 °F 53% 29.96 in 10.0 mi NE 15.0 mph - N/A   Clear
4:35 PM 46.4 °F 39.2 °F 28.4 °F 50% 29.96 in 10.0 mi NNE 18.4 mph - N/A   Clear
4:55 PM 46.4 °F 39.2 °F 28.4 °F 50% 29.95 in 10.0 mi NNE 18.4 mph 24.2 mph N/A   Clear
5:15 PM 44.6 °F 36.9 °F 28.4 °F 53% 29.95 in 10.0 mi NNE 18.4 mph 23.0 mph N/A   Clear
5:35 PM 44.6 °F 36.9 °F 28.4 °F 53% 29.95 in 10.0 mi NNE 18.4 mph - N/A   Clear
5:55 PM 42.8 °F 34.3 °F 26.6 °F 53% 29.96 in 10.0 mi NNE 19.6 mph 24.2 mph N/A   Clear
6:15 PM 42.8 °F 34.3 °F 26.6 °F 53% 29.96 in 10.0 mi NNE 19.6 mph 24.2 mph N/A   Clear
6:35 PM 41.0 °F 32.8 °F 26.6 °F 57% 29.96 in 10.0 mi NNE 16.1 mph - N/A   Clear
6:55 PM 41.0 °F 32.5 °F 24.8 °F 53% 29.97 in 10.0 mi NNE 17.3 mph - N/A   Clear
7:15 PM 39.2 °F 29.6 °F 24.8 °F 56% 29.97 in 10.0 mi NNE 19.6 mph 24.2 mph N/A   Clear
7:35 PM 39.2 °F 30.2 °F 24.8 °F 56% 29.97 in 10.0 mi NNE 17.3 mph 21.9 mph N/A   Clear
7:55 PM 37.4 °F 27.5 °F 24.8 °F 60% 29.98 in 10.0 mi NNE 18.4 mph - N/A   Clear
8:15 PM 37.4 °F 27.2 °F 24.8 °F 60% 29.98 in 10.0 mi NNE 19.6 mph 26.5 mph N/A   Clear
8:35 PM 37.4 °F 27.8 °F 24.8 °F 60% 30.00 in 10.0 mi NE 17.3 mph 21.9 mph N/A   Clear
8:55 PM 35.6 °F 25.9 °F 23.0 °F 60% 30.00 in 10.0 mi NE 16.1 mph - N/A   Clear
9:15 PM 35.6 °F 25.5 °F 23.0 °F 60% 30.01 in 10.0 mi NE 17.3 mph 21.9 mph N/A   Clear
9:35 PM 35.6 °F 25.5 °F 23.0 °F 60% 30.01 in 10.0 mi NE 17.3 mph 20.7 mph N/A   Mostly Cloudy
9:55 PM 33.8 °F 22.8 °F 23.0 °F 65% 30.01 in 10.0 mi NE 18.4 mph 26.5 mph N/A   Mostly Cloudy
10:15 PM 33.8 °F 22.2 °F 21.2 °F 60% 30.00 in 10.0 mi NE 20.7 mph 24.2 mph N/A   Partly Cloudy
10:35 PM 33.8 °F 24.8 °F 23.0 °F 65% 30.00 in 10.0 mi NE 12.7 mph - N/A   Clear
10:55 PM 32.0 °F 22.1 °F 21.2 °F 64% 30.01 in 10.0 mi NE 13.8 mph 19.6 mph N/A   Clear
11:15 PM 32.0 °F 22.1 °F 21.2 °F 64% 30.02 in 10.0 mi NE 13.8 mph 20.7 mph N/A   Partly Cloudy
11:35 PM 32.0 °F 22.1 °F 21.2 °F 64% 30.03 in 10.0 mi NE 13.8 mph - N/A   Scattered Clouds
11:55 PM 32.0 °F 23.0 °F 23.0 °F 69% 30.02 in 10.0 mi ENE 11.5 mph - N/A   Mostly Cloudy